Regional Weather Roundup
Issued by NWS Midland/Odessa, TX

Skip options and go directly to product.
Home | Oldest Version | Previous Version | Current Version | All | Text Only | Save Text | Print | Product List | Glossary Off

Skip product version selection by date and time.   

408
ASUS44 KMAF 312210
RWRMAF
MIDLAND AREA WEATHER ROUNDUP
NATIONAL WEATHER SERVICE MIDLAND TX
400 PM CST SAT JAN 31 2015

...IN SOUTHWEST TEXAS AND SOUTHEAST NEW MEXICO...

CITY           SKY/WX    TMP DP  RH WIND       PRES   REMARKS
ALPINE         MOSUNNY   62  41  46 S18G24    29.91S
ANDREWS        CLOUDY    49  49 100 S9        29.87F FOG
ARTESIA        MOSUNNY   48  46  93 SE9       29.83F
BIG SPRING     CLOUDY    54  51  92 S10       29.90S
CARLSBAD       CLOUDY    49  42  77 E3        29.84F
DRYDEN           N/A     53  52  96 NE5       29.88S
FORT STOCKTON  MOSUNNY   63  52  67 W6        29.82S
GUAD PASS      LGT RAIN  45  44  97 SW20      29.88S WCI  37
HOBBS          FOG       46  46 100 S58       29.86F VSB 1   WCI  34
MARFA          MOSUNNY   63  39  42 SW17G23   29.89S
MIDLAND AIRPK  CLOUDY    52  52 100 S8        29.87F
MIDLAND INTL   CLOUDY    52  50  93 S10       29.86F
ODESSA         CLOUDY    51  48  89 S12       29.86F
PECOS          CLOUDY    51  47  84 NE5       29.85S
PRESIDIO       FAIR      68  50  52 SE3       29.81F
SEMINOLE       FOG       46  46 100 CALM      29.87F VSB 1/4
SNYDER         CLOUDY   N/A N/A N/A S7        29.89F FOG
WINK           CLOUDY    54  46  74 SE3       29.84S
$$
...OTHER STATIONS IN TEXAS...

CITY           SKY/WX    TMP DP  RH WIND       PRES   REMARKS
ABILENE        CLOUDY    51  49  92 S16       29.89F
AMARILLO       CLOUDY    39  38  96 S14       29.85F WCI  31
AUSTIN         LGT RAIN  57  57 100 N3        29.97F FOG
BROWNSVILLE    PTSUNNY   72  63  73 SE23      29.94F
CORPUS CHRISTI PTSUNNY   72  63  73 SE24      29.96F
DALLAS FTW     RAIN      48  45  89 SE5       30.01S FOG
DEL RIO        CLOUDY    55  54  96 SE7       29.89F
EL PASO        PTSUNNY   58  44  60 W12       29.84S
HOUSTON INT    CLOUDY    61  54  77 E16       30.05F
LUBBOCK        DRIZZLE   42  42 100 S8        29.86F FOG     WCI  37
SAN ANGELO     CLOUDY    58  53  84 S17G28    29.84F
SAN ANTONIO    LGT RAIN  59  57  93 CALM      29.95S FOG
WACO           LGT RAIN  55  51  86 SE3       30.00F
WICHITA FALLS  NOT AVBL
$$
...OTHER LOCATIONS IN NEW MEXICO...

CITY           SKY/WX    TMP DP  RH WIND       PRES   REMARKS
ALAMAGORDO     CLOUDY    50  45  81 S7        29.87S
ALBUQUERQUE    CLOUDY    40  35  83 CALM      29.89S FOG
CANNON AFB     CLOUDY    41 N/A N/A CALM      29.83F
CLOVIS         CLOUDY    39  37  93 SW10      29.84S WCI  32
HOLLOMAN AFB   CLOUDY    49  46  87 S6        29.85F
ROSWELL        CLOUDY    46  41  82 E5        29.83F
RUIDOSO        MOSUNNY   46  36  66 SW15G21   29.86S
SANTA FE       CLOUDY    34  31  88 SW5       29.86S WCI  30
TRUTH OR CONSE CLOUDY    49  42  77 S5        29.84F
TUCUMCARI      CLOUDY    43  38  82 SW10      29.80F WCI  37
$$

USA.gov is the U.S. government's official web portal to all federal, state and local government web resources and services.